Simultaneous Nadir Overpasses (SNOs) Predictions

Prediction of SNOs between GOES-14 and NPP Satellite Orbit:

Table of predicted SNOs for the next 14.0 days since TLE Epoch: 4/9/2022
Index Date Time (GOES-14) GOES-14 Lat,Lon NPP Lat,Lon Distance(km) Time Diff (sec)
1 04/09/2022 08:36:33 0.12,-104.49 0.92,-108.03 403.11 80
2 04/10/2022 08:20:28 0.13,-104.49 -0.07,-103.49 114.22 80
3 04/11/2022 20:42:24 -0.12,-104.49 -1.09,-108.79 490.98 80
4 04/12/2022 20:20:59 -0.13,-104.48 -0.10,-104.26 24.68 80
5 04/15/2022 08:24:01 0.13,-104.48 0.22,-105.00 59.28 80
6 04/16/2022 08:07:56 0.13,-104.48 -0.77,-100.46 458.16 80
7 04/17/2022 20:29:52 -0.12,-104.49 -0.38,-105.77 145.81 80
8 04/18/2022 20:08:27 -0.12,-104.47 0.61,-101.23 369.52 80
9 04/20/2022 08:30:14 0.11,-104.45 0.55,-106.50 233.95 80
10 04/21/2022 08:14:09 0.12,-104.45 -0.44,-101.97 283.02 80
11 04/22/2022 20:36:04 -0.11,-104.48 -0.76,-107.26 318.36 80
